STARLINK-37068, 68085

Orbit data source: Space-Track

STARLINK-37068, 68085 is a payload satellite owned by SpaceX/Seattle (US) in LEO that was launched on Wed, 04 Mar 2026 UTC via an FALCON 9 launch vehicle from the Air Force Eastern Test Range (AFETR). Payload-class satellites include a variety of spacecraft equipped with specific instruments for various scientific and technological missions. These include communications satellites like Starlink; space stations such as the ISS; scientific satellites like the Hubble; Earth observation satellites from companies like Planet Labs, Umbra, and HawkEye 360; GPS; miniature CubeSats for education and research; and military/defense satellites.

Loading next visibility...
Identifier
68085, 2026-042S
Orbit
LEO
Country
Flag of USUS
Related business
Manufacturer
SpaceX/Seattle
Mission
Operational Commercial Communications
Bus & Motor
STARLINK V2MO, Unknown motor
Mass
575 kg wet, ~530 kg dry
Launch date (UTC)
2026-03-04 (4 months ago)
Launch vehicle
FALCON 9
Launch site
Air Force Eastern Test Range (AFETR)
Object type
Payload
Rocket body
Debris
Shape & HBR
Box + 2 Pan, 17.7 m
Radar Cross Section
36.964 m², Large (>1 m²)

Expand to show TLE details & history
Last TLE update: 22 hours ago

TLE from 22 hours ago
0 STARLINK-37068
1 68085U 26042S   26170.92835713  .00028725  00000-0  85749-3 0  9995
2 68085  53.1584  60.6002 0001149 100.9087 259.2045 15.34419932 18006
Epoch: 2026-06-19T22:16Z
TLE epoch observation values (Epoch: 2026-06-19T22:16:50.056Z)
Latitude
0.00001°
Longitude
178.24134°
Altitude
463.692 km
Speed
7.636 km/s
True Right ascension
04h 02m 24s
True Declination
0° 00' 00"
Sunlit
Object was in daylight at epoch
Visualization orbit readout
Latitude
Unknown
Longitude
Unknown
Altitude
Unknown
Speed
Unknown
Apparent Right ascension
Unknown
Apparent Declination
Unknown
Sunlit
N/A
Visualization observer readout
Local Sidereal Time
07:18:47
Azimuth
Unknown
Elevation
Unknown
Doppler factor
Unknown
Orbital elements
Apogee altitude
463.687 km
Perigee altitude
462.115 km
Semi-major axis
6,841.038 km
Eccentricity
0.00011
Inclination
53.1584°
RAAN
60.6002°
Arg. of periapsis
100.9087°
True anomaly
259.19157°
Mean anomaly
259.2045°
Eccentric anomaly
259.19803°
Mean motion
3.83584 °/min
Orbital period
93.85 mins
BSTAR
0.00085749
Loading maneuver chart data...
Computing Atmospheric mass density...
Loading historical data...
Loading historical data...
Loading historical data...
Loading historical data...
Loading historical data...
Loading historical data...
Loading historical data...

Documentation

Showing up to 5 results
|